,,Stat6,,Stat2,,Stat8,,Stat9,,Stat10,,Wind1,,Wind1,
time,status,PA1M_AVG,status,PR1M_SUM,status,RH1M_AVG,status,SR1M_AVG,status,TA1M_AVG,status,W1dAve1m,status,W1sAve1m,
2008-08-14, 00:00:00,VALID,917.504,VALID,0,VALID,100,VALID,-0.0339617,VALID,20.7345,VALID,70,VALID,0,
2008-08-14, 00:01:00,VALID,917.491,VALID,0,VALID,100,VALID,-0.0169808,VALID,20.7475,VALID,68,VALID,0,
2008-08-14, 00:02:00,VALID,917.479,VALID,0,VALID,100,VALID,-0.0169808,VALID,20.7507,VALID,68,VALID,0,
2008-08-14, 00:03:00,VALID,917.477,VALID,0,VALID,100,VALID,-0.0509425,VALID,20.7315,VALID,68,VALID,0,
2008-08-14, 00:04:00,VALID,917.473,VALID,0,VALID,100,VALID,-0.0169808,VALID,20.7153,VALID,68,VALID,0,
2008-08-14, 00:05:00,VALID,917.476,VALID,0,VALID,100,VALID,-0.0339617,VALID,20.7061,VALID,68,VALID,0,
2008-08-14, 00:06:00,VALID,917.46,VALID,0,VALID,100,VALID,-0.0169808,VALID,20.689,VALID,68,VALID,0,
2008-08-14, 00:07:00,VALID,917.438,VALID,0,VALID,100,VALID,-0.0169808,VALID,20.6628,VALID,68,VALID,0,
2008-08-14, 00:08:00,VALID,917.427,VALID,0,VALID,100,VALID,-0.0339617,VALID,20.6636,VALID,68,VALID,0,
2008-08-14, 00:09:00,VALID,917.413,VALID,0,VALID,100,VALID,-0.0169808,VALID,20.6374,VALID,68,VALID,0,
2008-08-14, 00:10:00,VALID,917.406,VALID,0,VALID,100,VALID,0,VALID,20.5787,VALID,68,VALID,0,
2008-08-14, 00:11:00,VALID,917.389,VALID,0,VALID,100,VALID,-0.0339617,VALID,20.556,VALID,68,VALID,0,
2008-08-14, 00:12:00,VALID,917.384,VALID,0,VALID,100,VALID,-0.0169808,VALID,20.4913,VALID,68,VALID,0,
2008-08-14, 00:13:00,VALID,917.371,VALID,0,VALID,100,VALID,0.0169808,VALID,20.4619,VALID,68,VALID,0,
2008-08-14, 00:14:00,VALID,917.36,VALID,0,VALID,100,VALID,-0.0169808,VALID,20.4846,VALID,68,VALID,0,
2008-08-14, 00:15:00,VALID,917.356,VALID,0,VALID,100,VALID,0,VALID,20.517,VALID,68,VALID,0,
2008-08-14, 00:16:00,VALID,917.351,VALID,0,VALID,100,VALID,0,VALID,20.533,VALID,68,VALID,0,
2008-08-14, 00:17:00,VALID,917.349,VALID,0,VALID,100,VALID,0,VALID,20.517,VALID,78,VALID,0.0123264,
2008-08-14, 00:18:00,VALID,917.34,VALID,0,VALID,100,VALID,0,VALID,20.4616,VALID,160,VALID,0.9375,
2008-08-14, 00:19:00,VALID,917.346,VALID,0,VALID,100,VALID,0,VALID,20.4157,VALID,154,VALID,0.827344,
2008-08-14, 00:20:00,VALID,917.354,VALID,0,VALID,100,VALID,0.0169808,VALID,20.3905,VALID,149,VALID,0.698742,
2008-08-14, 00:21:00,VALID,917.352,VALID,0,VALID,100,VALID,-0.0169808,VALID,20.3613,VALID,140,VALID,0.493304,
2008-08-14, 00:22:00,VALID,917.342,VALID,0,VALID,100,VALID,0,VALID,20.351,VALID,140,VALID,0.89169,
2008-08-14, 00:23:00,VALID,917.327,VALID,0,VALID,100,VALID,-0.0169808,VALID,20.345,VALID,132,VALID,0.474888,
2008-08-14, 00:24:00,VALID,917.336,VALID,0,VALID,100,VALID,0,VALID,20.3253,VALID,131,VALID,0.929506,
2008-08-14, 00:25:00,VALID,917.334,VALID,0,VALID,100,VALID,-0.0509425,VALID,20.3418,VALID,134,VALID,0.898801,
2008-08-14, 00:26:00,VALID,917.317,VALID,0,VALID,100,VALID,0,VALID,20.3448,VALID,129,VALID,0.698438,
2008-08-14, 00:27:00,VALID,917.311,VALID,0,VALID,100,VALID,0,VALID,20.3153,VALID,119,VALID,0.52798,
2008-08-14, 00:28:00,VALID,917.314,VALID,0,VALID,100,VALID,0,VALID,20.2899,VALID,118,VALID,0.608373,
2008-08-14, 00:29:00,VALID,917.303,VALID,0,VALID,100,VALID,0,VALID,20.3253,VALID,118,VALID,0.873698,
2008-08-14, 00:30:00,VALID,917.286,VALID,0,VALID,100,VALID,0,VALID,20.3413,VALID,122,VALID,0.839026,
2008-08-14, 00:31:00,VALID,917.279,VALID,0,VALID,100,VALID,0,VALID,20.3313,VALID,126,VALID,0.804155,
2008-08-14, 00:32:00,VALID,917.264,VALID,0,VALID,100,VALID,0,VALID,20.358,VALID,139,VALID,1.00781,
2008-08-14, 00:33:00,VALID,917.253,VALID,0,VALID,100,VALID,-0.0169808,VALID,20.361,VALID,138,VALID,0.810785,
2008-08-14, 00:34:00,VALID,917.25,VALID,0,VALID,100,VALID,-0.0169808,VALID,20.3445,VALID,139,VALID,0.658008,
2008-08-14, 00:35:00,VALID,917.231,VALID,0,VALID,100,VALID,0,VALID,20.341,VALID,148,VALID,0.692187,
2008-08-14, 00:36:00,VALID,917.234,VALID,0,VALID,100,VALID,-0.0169808,VALID,20.3448,VALID,152,VALID,0.851372,
2008-08-14, 00:37:00,VALID,917.237,VALID,0,VALID,100,VALID,0,VALID,20.3448,VALID,152,VALID,0.770275,
2008-08-14, 00:38:00,VALID,917.242,VALID,0,VALID,100,VALID,-0.0169808,VALID,20.335,VALID,149,VALID,0.696987,
2008-08-14, 00:39:00,VALID,917.229,VALID,0,VALID,100,VALID,0,VALID,20.3418,VALID,147,VALID,0.653582,
2008-08-14, 00:40:00,VALID,917.231,VALID,0,VALID,100,VALID,-0.0169808,VALID,20.3418,VALID,145,VALID,0.821221,
2008-08-14, 00:41:00,VALID,917.224,VALID,0,VALID,100,VALID,0,VALID,20.3443,VALID,138,VALID,1.03906,
2008-08-14, 00:42:00,VALID,917.22,VALID,0,VALID,100,VALID,-0.0169808,VALID,20.338,VALID,140,VALID,0.920422,
2008-08-14, 00:43:00,VALID,917.193,VALID,0,VALID,100,VALID,0,VALID,20.3345,VALID,140,VALID,1.07522,
2008-08-14, 00:44:00,VALID,917.175,VALID,0,VALID,100,VALID,0.0169808,VALID,20.3473,VALID,136,VALID,0.947674,
2008-08-14, 00:45:00,VALID,917.166,VALID,0,VALID,100,VALID,0,VALID,20.3443,VALID,137,VALID,1.00419,
2008-08-14, 00:46:00,VALID,917.166,VALID,0,VALID,100,VALID,0,VALID,20.351,VALID,134,VALID,1.15552,
2008-08-14, 00:47:00,VALID,917.158,VALID,0,VALID,100,VALID,0,VALID,20.3578,VALID,135,VALID,1.14463,
2008-08-14, 00:48:00,VALID,917.156,VALID,0,VALID,100,VALID,0,VALID,20.3513,VALID,133,VALID,1.24907,
2008-08-14, 00:49:00,VALID,917.167,VALID,0,VALID,100,VALID,0.0169808,VALID,20.3408,VALID,132,VALID,1.04421,
2008-08-14, 00:50:00,VALID,917.159,VALID,0,VALID,100,VALID,0,VALID,20.345,VALID,143,VALID,1.04594,
2008-08-14, 00:51:00,VALID,917.145,VALID,0,VALID,100,VALID,-0.0169808,VALID,20.3353,VALID,146,VALID,1.04725,
2008-08-14, 00:52:00,VALID,917.152,VALID,0,VALID,100,VALID,0,VALID,20.3315,VALID,137,VALID,0.682776,
2008-08-14, 00:53:00,VALID,917.158,VALID,0,VALID,100,VALID,0,VALID,20.3415,VALID,139,VALID,0.396577,
2008-08-14, 00:54:00,VALID,917.162,VALID,0,VALID,100,VALID,0,VALID,20.3383,VALID,148,VALID,0.747904,
2008-08-14, 00:55:00,VALID,917.152,VALID,0,VALID,100,VALID,-0.0339617,VALID,20.3383,VALID,151,VALID,0.481027,
2008-08-14, 00:56:00,VALID,917.138,VALID,0,VALID,100,VALID,-0.0169808,VALID,20.3385,VALID,154,VALID,0.963715,
2008-08-14, 00:57:00,VALID,917.138,VALID,0,VALID,100,VALID,-0.0169808,VALID,20.3286,VALID,157,VALID,0.938408,
2008-08-14, 00:58:00,VALID,917.12,VALID,0,VALID,100,VALID,0,VALID,20.3091,VALID,159,VALID,0.844993,
2008-08-14, 00:59:00,VALID,917.101,VALID,0,VALID,100,VALID,-0.0339617,VALID,20.3026,VALID,161,VALID,0.835938,
2008-08-14, 01:00:00,VALID,917.054,VALID,0,VALID,100,VALID,0,VALID,20.3028,VALID,167,VALID,1.04787,
2008-08-14, 01:01:00,VALID,917.03,VALID,0,VALID,100,VALID,0,VALID,20.2801,VALID,159,VALID,0.56936,
2008-08-14, 01:02:00,VALID,917.022,VALID,0,VALID,100,VALID,-0.0169808,VALID,20.2602,VALID,154,VALID,0.96218,
2008-08-14, 01:03:00,VALID,917.019,VALID,0,VALID,100,VALID,0,VALID,20.2496,VALID,161,VALID,0.733613,
2008-08-14, 01:04:00,VALID,917.009,VALID,0,VALID,100,VALID,0.0169808,VALID,20.2537,VALID,161,VALID,0.571221,
2008-08-14, 01:05:00,VALID,917.011,VALID,0,VALID,100,VALID,-0.0169808,VALID,20.2504,VALID,160,VALID,0,
2008-08-14, 01:06:00,VALID,917.011,VALID,0,VALID,100,VALID,-0.0339617,VALID,20.228,VALID,153,VALID,0.286882,
2008-08-14, 01:07:00,VALID,917.005,VALID,0,VALID,100,VALID,-0.0339617,VALID,20.225,VALID,152,VALID,0.561357,
2008-08-14, 01:08:00,VALID,916.992,VALID,0,VALID,100,VALID,-0.0509425,VALID,20.218,VALID,156,VALID,1.18288,
2008-08-14, 01:09:00,VALID,916.981,VALID,0,VALID,100,VALID,-0.0169808,VALID,20.2312,VALID,144,VALID,1.10701,
2008-08-14, 01:10:00,VALID,916.967,VALID,0,VALID,100,VALID,0,VALID,20.2507,VALID,133,VALID,1.33975,
2008-08-14, 01:11:00,VALID,916.957,VALID,0,VALID,100,VALID,0,VALID,20.2537,VALID,127,VALID,1.03343,
2008-08-14, 01:12:00,VALID,916.965,VALID,0,VALID,100,VALID,-0.0169808,VALID,20.2439,VALID,128,VALID,1.09484,
2008-08-14, 01:13:00,VALID,916.965,VALID,0,VALID,100,VALID,0,VALID,20.2442,VALID,135,VALID,0.846236,
2008-08-14, 01:14:00,VALID,916.963,VALID,0,VALID,100,VALID,-0.0169808,VALID,20.2504,VALID,152,VALID,0.328316,
2008-08-14, 01:15:00,VALID,916.953,VALID,0,VALID,100,VALID,-0.0169808,VALID,20.2634,VALID,164,VALID,0,
2008-08-14, 01:16:00,VALID,916.961,VALID,0,VALID,100,VALID,0,VALID,20.2766,VALID,167,VALID,0.0919331,
2008-08-14, 01:17:00,VALID,916.946,VALID,0,VALID,100,VALID,0,VALID,20.3026,VALID,152,VALID,0.00855655,
2008-08-14, 01:18:00,VALID,916.949,VALID,0,VALID,100,VALID,-0.0169808,VALID,20.3093,VALID,165,VALID,0,
2008-08-14, 01:19:00,VALID,916.939,VALID,0,VALID,100,VALID,-0.0169808,VALID,20.3026,VALID,170,VALID,0,
2008-08-14, 01:20:00,VALID,916.934,VALID,0,VALID,100,VALID,-0.0169808,VALID,20.2929,VALID,172,VALID,0,
2008-08-14, 01:21:00,VALID,916.918,VALID,0,VALID,100,VALID,-0.0339617,VALID,20.2769,VALID,171,VALID,0,
2008-08-14, 01:22:00,VALID,916.916,VALID,0,VALID,100,VALID,-0.0169808,VALID,20.2704,VALID,169,VALID,0,
2008-08-14, 01:23:00,VALID,916.918,VALID,0,VALID,100,VALID,-0.0169808,VALID,20.2602,VALID,168,VALID,0,
2008-08-14, 01:24:00,VALID,916.919,VALID,0,VALID,100,VALID,0,VALID,20.2634,VALID,168,VALID,0,
2008-08-14, 01:25:00,VALID,916.917,VALID,0,VALID,100,VALID,0,VALID,20.2596,VALID,165,VALID,0,
2008-08-14, 01:26:00,VALID,916.908,VALID,0,VALID,100,VALID,0.0169808,VALID,20.2434,VALID,152,VALID,0,
2008-08-14, 01:27:00,VALID,916.891,VALID,0,VALID,100,VALID,0,VALID,20.2047,VALID,149,VALID,0,
2008-08-14, 01:28:00,VALID,916.88,VALID,0,VALID,100,VALID,-0.0169808,VALID,20.1428,VALID,127,VALID,0,
2008-08-14, 01:29:00,VALID,916.862,VALID,0,VALID,100,VALID,0.0169808,VALID,20.1041,VALID,100,VALID,0.0848214,
2008-08-14, 01:30:00,VALID,916.86,VALID,0,VALID,100,VALID,-0.0169808,VALID,20.1039,VALID,82,VALID,0.00230824,
2008-08-14, 01:31:00,VALID,916.85,VALID,0,VALID,100,VALID,-0.0169808,VALID,20.1106,VALID,83,VALID,0,
2008-08-14, 01:32:00,VALID,916.845,VALID,0,VALID,100,VALID,-0.0339617,VALID,20.0979,VALID,83,VALID,0,
2008-08-14, 01:33:00,VALID,916.833,VALID,0,VALID,100,VALID,-0.0169808,VALID,20.1046,VALID,83,VALID,0,
2008-08-14, 01:34:00,VALID,916.84,VALID,0,VALID,100,VALID,0,VALID,20.0979,VALID,83,VALID,0,
2008-08-14, 01:35:00,VALID,916.828,VALID,0,VALID,100,VALID,-0.0339617,VALID,20.1141,VALID,90,VALID,0,
2008-08-14, 01:36:00,VALID,916.812,VALID,0,VALID,100,VALID,0,VALID,20.1463,VALID,98,VALID,0,
2008-08-14, 01:37:00,VALID,916.814,VALID,0,VALID,100,VALID,0.0169808,VALID,20.179,VALID,106,VALID,0,
2008-08-14, 01:38:00,VALID,916.801,VALID,0,VALID,100,VALID,-0.0169808,VALID,20.2117,VALID,111,VALID,0,
2008-08-14, 01:39:00,VALID,916.794,VALID,0,VALID,100,VALID,-0.0169808,VALID,20.2212,VALID,111,VALID,0,
2008-08-14, 01:40:00,VALID,916.8,VALID,0,VALID,100,VALID,0,VALID,20.2145,VALID,111,VALID,0,
2008-08-14, 01:41:00,VALID,916.777,VALID,0,VALID,100,VALID,0,VALID,20.2247,VALID,118,VALID,0,
2008-08-14, 01:42:00,VALID,916.772,VALID,0,VALID,100,VALID,0,VALID,20.218,VALID,121,VALID,0,
2008-08-14, 01:43:00,VALID,916.778,VALID,0,VALID,100,VALID,0,VALID,20.202,VALID,121,VALID,0,
2008-08-14, 01:44:00,VALID,916.767,VALID,0,VALID,100,VALID,0,VALID,20.1458,VALID,121,VALID,0,
2008-08-14, 01:45:00,VALID,916.76,VALID,0,VALID,100,VALID,-0.0339617,VALID,20.0852,VALID,121,VALID,0,
2008-08-14, 01:46:00,VALID,916.751,VALID,0,VALID,100,VALID,0,VALID,20.0595,VALID,121,VALID,0,
2008-08-14, 01:47:00,VALID,916.733,VALID,0,VALID,100,VALID,-0.0509425,VALID,20.0595,VALID,117,VALID,0,
2008-08-14, 01:48:00,VALID,916.744,VALID,0,VALID,100,VALID,-0.0169808,VALID,20.0657,VALID,43,VALID,0,
2008-08-14, 01:49:00,VALID,916.743,VALID,0,VALID,100,VALID,-0.0169808,VALID,20.1017,VALID,40,VALID,0,
2008-08-14, 01:50:00,VALID,916.733,VALID,0,VALID,100,VALID,-0.0509425,VALID,20.1174,VALID,37,VALID,0,
2008-08-14, 01:51:00,VALID,916.742,VALID,0,VALID,100,VALID,0,VALID,20.1336,VALID,37,VALID,0,
2008-08-14, 01:52:00,VALID,916.748,VALID,0,VALID,100,VALID,-0.0169808,VALID,20.1366,VALID,37,VALID,0,
2008-08-14, 01:53:00,VALID,916.741,VALID,0,VALID,100,VALID,-0.0169808,VALID,20.0744,VALID,37,VALID,0,
2008-08-14, 01:54:00,VALID,916.741,VALID,0,VALID,100,VALID,0,VALID,20.036,VALID,37,VALID,0,
2008-08-14, 01:55:00,VALID,916.729,VALID,0,VALID,100,VALID,0,VALID,20.0293,VALID,37,VALID,0,
2008-08-14, 01:56:00,VALID,916.713,VALID,0,VALID,100,VALID,-0.0339617,VALID,20.0592,VALID,50,VALID,0,
2008-08-14, 01:57:00,VALID,916.703,VALID,0,VALID,100,VALID,0,VALID,20.033,VALID,68,VALID,0,
2008-08-14, 01:58:00,VALID,916.692,VALID,0,VALID,100,VALID,-0.0169808,VALID,20.0095,VALID,72,VALID,0,
2008-08-14, 01:59:00,VALID,916.702,VALID,0,VALID,100,VALID,0.0169808,VALID,19.9941,VALID,73,VALID,0,
2008-08-14, 02:00:00,VALID,916.722,VALID,0,VALID,100,VALID,-0.0339617,VALID,19.9738,VALID,84,VALID,0,
2008-08-14, 02:01:00,VALID,916.73,VALID,0,VALID,100,VALID,0,VALID,19.9813,VALID,84,VALID,0,
2008-08-14, 02:02:00,VALID,916.731,VALID,0,VALID,100,VALID,0.0169808,VALID,19.9743,VALID,84,VALID,0,
2008-08-14, 02:03:00,VALID,916.73,VALID,0,VALID,100,VALID,0.0169808,VALID,19.9679,VALID,84,VALID,0,
2008-08-14, 02:04:00,VALID,916.714,VALID,0,VALID,100,VALID,0,VALID,19.9157,VALID,84,VALID,0,
2008-08-14, 02:05:00,VALID,916.706,VALID,0,VALID,100,VALID,-0.0679233,VALID,19.8456,VALID,84,VALID,0,
2008-08-14, 02:06:00,VALID,916.679,VALID,0,VALID,100,VALID,-0.118866,VALID,19.8106,VALID,84,VALID,0,
2008-08-14, 02:07:00,VALID,916.67,VALID,0,VALID,100,VALID,-0.135847,VALID,19.7912,VALID,84,VALID,0,
2008-08-14, 02:08:00,VALID,916.643,VALID,0,VALID,100,VALID,-0.135847,VALID,19.7682,VALID,84,VALID,0,
2008-08-14, 02:09:00,VALID,916.631,VALID,0,VALID,100,VALID,-0.118866,VALID,19.746,VALID,84,VALID,0,
2008-08-14, 02:10:00,VALID,916.622,VALID,0,VALID,100,VALID,-0.152827,VALID,19.6971,VALID,84,VALID,0,
2008-08-14, 02:11:00,VALID,916.617,VALID,0,VALID,100,VALID,-0.135847,VALID,19.6414,VALID,84,VALID,0,
2008-08-14, 02:12:00,VALID,916.605,VALID,0,VALID,100,VALID,-0.135847,VALID,19.6222,VALID,84,VALID,0,
2008-08-14, 02:13:00,VALID,916.617,VALID,0,VALID,100,VALID,-0.152827,VALID,19.6192,VALID,82,VALID,0,
2008-08-14, 02:14:00,VALID,916.601,VALID,0,VALID,100,VALID,-0.101885,VALID,19.5827,VALID,78,VALID,0,
2008-08-14, 02:15:00,VALID,916.594,VALID,0,VALID,100,VALID,-0.118866,VALID,19.5506,VALID,78,VALID,0,
2008-08-14, 02:16:00,VALID,916.582,VALID,0,VALID,100,VALID,-0.101885,VALID,19.6476,VALID,78,VALID,0,
2008-08-14, 02:17:00,VALID,916.565,VALID,0,VALID,100,VALID,-0.135847,VALID,19.6998,VALID,78,VALID,0,
2008-08-14, 02:18:00,VALID,916.54,VALID,0,VALID,100,VALID,-0.118866,VALID,19.6771,VALID,78,VALID,0,
2008-08-14, 02:19:00,VALID,916.533,VALID,0,VALID,100,VALID,-0.135847,VALID,19.7035,VALID,82,VALID,0,
2008-08-14, 02:20:00,VALID,916.512,VALID,0,VALID,100,VALID,-0.0509425,VALID,19.7085,VALID,91,VALID,0,
2008-08-14, 02:21:00,VALID,916.516,VALID,0,VALID,100,VALID,-0.0169808,VALID,19.731,VALID,92,VALID,0,
2008-08-14, 02:22:00,VALID,916.528,VALID,0,VALID,100,VALID,-0.0679233,VALID,19.7837,VALID,102,VALID,0,
2008-08-14, 02:23:00,VALID,916.53,VALID,0,VALID,100,VALID,-0.0339617,VALID,19.8151,VALID,111,VALID,0.887153,
2008-08-14, 02:24:00,VALID,916.538,VALID,0,VALID,100,VALID,-0.0339617,VALID,19.8311,VALID,111,VALID,0.0290179,
2008-08-14, 02:25:00,VALID,916.534,VALID,0,VALID,100,VALID,-0.0339617,VALID,19.8243,VALID,123,VALID,0,
2008-08-14, 02:26:00,VALID,916.553,VALID,0,VALID,100,VALID,0,VALID,19.8186,VALID,125,VALID,0,
2008-08-14, 02:27:00,VALID,916.553,VALID,0,VALID,100,VALID,0,VALID,19.8149,VALID,128,VALID,1.05254,
2008-08-14, 02:28:00,VALID,916.548,VALID,0,VALID,100,VALID,-0.0339617,VALID,19.8181,VALID,127,VALID,1.03462,
2008-08-14, 02:29:00,VALID,916.541,VALID,0,VALID,100,VALID,-0.0339617,VALID,19.8119,VALID,123,VALID,1.09451,
2008-08-14, 02:30:00,VALID,916.539,VALID,0,VALID,100,VALID,-0.0169808,VALID,19.8186,VALID,118,VALID,0.728516,
2008-08-14, 02:31:00,VALID,916.556,VALID,0,VALID,100,VALID,-0.0679233,VALID,19.8154,VALID,126,VALID,1.16025,
2008-08-14, 02:32:00,VALID,916.556,VALID,0,VALID,100,VALID,-0.0169808,VALID,19.8119,VALID,129,VALID,1.20484,
2008-08-14, 02:33:00,VALID,916.569,VALID,0,VALID,100,VALID,-0.0169808,VALID,19.7986,VALID,128,VALID,0.973958,
2008-08-14, 02:34:00,VALID,916.573,VALID,0,VALID,100,VALID,-0.0509425,VALID,19.7862,VALID,131,VALID,1.16722,
2008-08-14, 02:35:00,VALID,916.58,VALID,0,VALID,100,VALID,-0.0169808,VALID,19.7892,VALID,132,VALID,0.894159,
2008-08-14, 02:36:00,VALID,916.598,VALID,0,VALID,100,VALID,0,VALID,19.7894,VALID,131,VALID,0.949805,
2008-08-14, 02:37:00,VALID,916.571,VALID,0,VALID,100,VALID,0,VALID,19.8119,VALID,132,VALID,0.930778,
2008-08-14, 02:38:00,VALID,916.575,VALID,0,VALID,100,VALID,0,VALID,19.8313,VALID,130,VALID,0.959121,
2008-08-14, 02:39:00,VALID,916.564,VALID,0,VALID,100,VALID,0,VALID,19.8408,VALID,128,VALID,0.756392,
2008-08-14, 02:40:00,VALID,916.557,VALID,0,VALID,100,VALID,-0.0169808,VALID,19.8476,VALID,130,VALID,0.443407,
2008-08-14, 02:41:00,VALID,916.552,VALID,0,VALID,100,VALID,-0.0679233,VALID,19.8608,VALID,129,VALID,0,
2008-08-14, 02:42:00,VALID,916.529,VALID,0,VALID,100,VALID,-0.0169808,VALID,19.8538,VALID,129,VALID,0,
2008-08-14, 02:43:00,VALID,916.523,VALID,0,VALID,100,VALID,0,VALID,19.8633,VALID,129,VALID,0,
2008-08-14, 02:44:00,VALID,916.514,VALID,0,VALID,100,VALID,0,VALID,19.873,VALID,129,VALID,0,
2008-08-14, 02:45:00,VALID,916.524,VALID,0,VALID,100,VALID,0,VALID,19.8797,VALID,129,VALID,0,
2008-08-14, 02:46:00,VALID,916.513,VALID,0,VALID,100,VALID,-0.0169808,VALID,19.87,VALID,129,VALID,0,
2008-08-14, 02:47:00,VALID,916.515,VALID,0,VALID,100,VALID,-0.0169808,VALID,19.8703,VALID,129,VALID,0,
2008-08-14, 02:48:00,VALID,916.519,VALID,0,VALID,100,VALID,-0.0679233,VALID,19.8808,VALID,129,VALID,0,
2008-08-14, 02:49:00,VALID,916.517,VALID,0,VALID,100,VALID,-0.0339617,VALID,19.8803,VALID,129,VALID,0,
2008-08-14, 02:50:00,VALID,916.543,VALID,0,VALID,100,VALID,0,VALID,19.8695,VALID,129,VALID,0,
2008-08-14, 02:51:00,VALID,916.543,VALID,0,VALID,100,VALID,0.0509425,VALID,19.8695,VALID,129,VALID,0,
2008-08-14, 02:52:00,VALID,916.539,VALID,0,VALID,100,VALID,0.0509425,VALID,19.8685,VALID,129,VALID,0,
2008-08-14, 02:53:00,VALID,916.538,VALID,0,VALID,100,VALID,0.0849042,VALID,19.8785,VALID,129,VALID,0,
2008-08-14, 02:54:00,VALID,916.522,VALID,0,VALID,100,VALID,0.0849042,VALID,19.9077,VALID,129,VALID,0,
2008-08-14, 02:55:00,VALID,916.514,VALID,0,VALID,100,VALID,0.0339617,VALID,19.9139,VALID,129,VALID,0,
2008-08-14, 02:56:00,VALID,916.496,VALID,0,VALID,100,VALID,0.0849042,VALID,19.9307,VALID,129,VALID,0,
2008-08-14, 02:57:00,VALID,916.486,VALID,0,VALID,100,VALID,0.0849042,VALID,19.9239,VALID,129,VALID,0,
2008-08-14, 02:58:00,VALID,916.462,VALID,0,VALID,100,VALID,0.0679233,VALID,19.9401,VALID,129,VALID,0,
2008-08-14, 02:59:00,VALID,916.443,VALID,0,VALID,100,VALID,0.0509425,VALID,19.9604,VALID,125,VALID,0,
2008-08-14, 03:00:00,VALID,916.442,VALID,0,VALID,100,VALID,0.0849042,VALID,19.9564,VALID,125,VALID,0,
2008-08-14, 03:01:00,VALID,916.443,VALID,0,VALID,100,VALID,0.101885,VALID,19.9663,VALID,125,VALID,0,
2008-08-14, 03:02:00,VALID,916.43,VALID,0,VALID,100,VALID,0.0849042,VALID,19.9823,VALID,125,VALID,0,
2008-08-14, 03:03:00,VALID,916.416,VALID,0,VALID,100,VALID,0.0849042,VALID,20.0023,VALID,124,VALID,0,
2008-08-14, 03:04:00,VALID,916.41,VALID,0,VALID,100,VALID,0.0509425,VALID,20.035,VALID,123,VALID,0,
2008-08-14, 03:05:00,VALID,916.388,VALID,0,VALID,100,VALID,0.0339617,VALID,20.0609,VALID,123,VALID,0,
2008-08-14, 03:06:00,VALID,916.387,VALID,0,VALID,100,VALID,-0.0169808,VALID,20.0844,VALID,122,VALID,0.141992,
2008-08-14, 03:07:00,VALID,916.377,VALID,0,VALID,100,VALID,-0.0509425,VALID,20.1041,VALID,122,VALID,0.352805,
2008-08-14, 03:08:01,VALID,916.383,VALID,0,VALID,100,VALID,-0.0169808,VALID,20.1333,VALID,123,VALID,0,
2008-08-14, 03:09:00,VALID,916.379,VALID,0,VALID,100,VALID,-0.0339617,VALID,20.1625,VALID,122,VALID,0,
2008-08-14, 03:10:01,VALID,916.371,VALID,0,VALID,100,VALID,-0.0339617,VALID,20.1882,VALID,122,VALID,0,
2008-08-14, 03:11:00,VALID,916.381,VALID,0,VALID,100,VALID,-0.0679233,VALID,20.2107,VALID,122,VALID,0,
2008-08-14, 03:12:00,VALID,916.379,VALID,0,VALID,100,VALID,-0.0339617,VALID,20.2467,VALID,122,VALID,0,
2008-08-14, 03:13:00,VALID,916.362,VALID,0,VALID,100,VALID,-0.0169808,VALID,20.2689,VALID,122,VALID,0,
2008-08-14, 03:14:00,VALID,916.37,VALID,0,VALID,100,VALID,-0.0339617,VALID,20.2824,VALID,122,VALID,0,
2008-08-14, 03:15:00,VALID,916.35,VALID,0,VALID,100,VALID,-0.0509425,VALID,20.2953,VALID,122,VALID,0,
2008-08-14, 03:16:01,VALID,916.328,VALID,0,VALID,100,VALID,-0.0679233,VALID,20.2921,VALID,122,VALID,0,
2008-08-14, 03:17:00,VALID,916.324,VALID,0,VALID,100,VALID,-0.0169808,VALID,20.2986,VALID,122,VALID,0,
2008-08-14, 03:18:00,VALID,916.305,VALID,0,VALID,100,VALID,-0.0679233,VALID,20.2759,VALID,122,VALID,0,
2008-08-14, 03:19:01,VALID,916.303,VALID,0,VALID,100,VALID,-0.0509425,VALID,20.2729,VALID,122,VALID,0,
2008-08-14, 03:20:00,VALID,916.283,VALID,0,VALID,100,VALID,-0.0679233,VALID,20.2731,VALID,122,VALID,0,
2008-08-14, 03:21:00,VALID,916.279,VALID,0,VALID,100,VALID,-0.0679233,VALID,20.2731,VALID,122,VALID,0.030878,
2008-08-14, 03:22:00,VALID,916.284,VALID,0,VALID,100,VALID,-0.0679233,VALID,20.2824,VALID,138,VALID,0.0893674,
2008-08-14, 03:23:00,VALID,916.285,VALID,0,VALID,100,VALID,-0.0339617,VALID,20.2853,VALID,151,VALID,0,
2008-08-14, 03:24:00,VALID,916.279,VALID,0,VALID,100,VALID,-0.0849042,VALID,20.2888,VALID,151,VALID,0,
2008-08-14, 03:25:01,VALID,916.292,VALID,0,VALID,100,VALID,-0.0849042,VALID,20.2958,VALID,151,VALID,0,
2008-08-14, 03:26:00,VALID,916.289,VALID,0,VALID,100,VALID,-0.0509425,VALID,20.2958,VALID,172,VALID,0.0701308,
2008-08-14, 03:27:01,VALID,916.307,VALID,0,VALID,100,VALID,-0.0339617,VALID,20.2724,VALID,177,VALID,0.6875,
2008-08-14, 03:28:00,VALID,916.277,VALID,0,VALID,100,VALID,-0.0509425,VALID,20.2629,VALID,177,VALID,0.425959,
2008-08-14, 03:29:01,VALID,916.279,VALID,0,VALID,100,VALID,-0.0849042,VALID,20.2469,VALID,177,VALID,0,
2008-08-14, 03:30:00,VALID,916.253,VALID,0,VALID,100,VALID,-0.0509425,VALID,20.2402,VALID,179,VALID,0.140253,
2008-08-14, 03:31:01,VALID,916.242,VALID,0,VALID,100,VALID,-0.101885,VALID,20.2409,VALID,185,VALID,0.136523,
2008-08-14, 03:32:00,VALID,916.221,VALID,0,VALID,100,VALID,-0.0679233,VALID,20.2277,VALID,185,VALID,0,
2008-08-14, 03:33:01,VALID,916.224,VALID,0,VALID,100,VALID,-0.0509425,VALID,20.2269,VALID,185,VALID,0,
2008-08-14, 03:34:00,VALID,916.214,VALID,0,VALID,100,VALID,-0.0679233,VALID,20.2307,VALID,184,VALID,0,
2008-08-14, 03:35:00,VALID,916.211,VALID,0,VALID,100,VALID,-0.0169808,VALID,20.2239,VALID,184,VALID,0,
2008-08-14, 03:36:00,VALID,916.202,VALID,0,VALID,100,VALID,-0.0509425,VALID,20.2142,VALID,184,VALID,0,
2008-08-14, 03:37:00,VALID,916.206,VALID,0,VALID,100,VALID,0,VALID,20.1845,VALID,184,VALID,0,
2008-08-14, 03:38:01,VALID,916.21,VALID,0,VALID,100,VALID,-0.0849042,VALID,20.1393,VALID,184,VALID,0,
2008-08-14, 03:39:01,VALID,916.211,VALID,0,VALID,100,VALID,-0.0509425,VALID,20.1139,VALID,184,VALID,0,
2008-08-14, 03:40:00,VALID,916.209,VALID,0,VALID,100,VALID,-0.0339617,VALID,20.1199,VALID,184,VALID,0,
2008-08-14, 03:41:00,VALID,916.206,VALID,0,VALID,100,VALID,0,VALID,20.1328,VALID,184,VALID,0,
2008-08-14, 03:42:00,VALID,916.217,VALID,0,VALID,100,VALID,0,VALID,20.1164,VALID,184,VALID,0,
2008-08-14, 03:43:00,VALID,916.223,VALID,0,VALID,100,VALID,-0.0679233,VALID,20.0452,VALID,184,VALID,0,
2008-08-14, 03:44:00,VALID,916.223,VALID,0,VALID,100,VALID,-0.0509425,VALID,19.9938,VALID,45,VALID,0.0741279,
2008-08-14, 03:45:00,VALID,916.215,VALID,0,VALID,100,VALID,0,VALID,19.9738,VALID,42,VALID,0.778232,
2008-08-14, 03:46:00,VALID,916.212,VALID,0,VALID,100,VALID,-0.0509425,VALID,19.9771,VALID,47,VALID,0.442406,
2008-08-14, 03:47:00,VALID,916.203,VALID,0,VALID,100,VALID,-0.0679233,VALID,19.9806,VALID,47,VALID,0.00855655,
2008-08-14, 03:48:00,VALID,916.198,VALID,0,VALID,100,VALID,-0.0849042,VALID,19.9679,VALID,47,VALID,0,
2008-08-14, 03:49:00,VALID,916.206,VALID,0,VALID,100,VALID,-0.0679233,VALID,19.9354,VALID,47,VALID,0,